Location: Santa Fe
(35.6870°N, 105.9370°W)
Time: 02:22:40
(UTC-07:00)

Amateur Radio Satellites - All Passes

Search period start: 30 January 2015 01:52
Search period end: 31 January 2015 01:52
Location: Santa Fe, 35.6870°N, 105.9370°W

Satellite Date Start Highest point End Downlink Frequencies (MHz)
Time Altitude Azimuth
GONETS M04 30 Jan 02:01:28 02:10:02 54° 282° (WNW) 02:18:31
ITAMSAT 1 30 Jan 02:07:48 02:12:55 55° 100° (E) 02:18:03 435.822/435.867
SWISSCUBE 30 Jan 02:18:18 02:19:45 11° 271° (W) 02:20:52 437.505
STARS 30 Jan 02:29:23 02:33:47 66° 259° (W) 02:38:15 437.465
PCSat 30 Jan 02:36:09 02:38:38 14° 105° (ESE) 02:41:27 145.827
KKS-1 30 Jan 02:38:02 02:42:07 33° 263° (W) 02:46:11 437.445
M-CUBED/EXP-1 PRIME 30 Jan 02:45:17 02:49:23 59° 255° (WSW) 02:53:08 437.505
HORYU 2 30 Jan 02:46:05 02:49:41 24° 95° (E) 02:53:19 437.375
O/OREOS (USA 219) 30 Jan 02:46:37 02:50:47 33° 256° (WSW) 02:54:53 437.305
MOZHAYETS 4 30 Jan 02:50:31 02:50:34 10° 66° (ENE) 02:50:56
AIST 2 30 Jan 02:51:17 02:55:27 57° 301° (WNW) 02:59:42 435.215
BEESAT 2 30 Jan 02:52:12 02:55:35 23° 309° (NW) 02:58:57 435.950
DANDE 30 Jan 03:04:10 03:10:49 30° 87° (E) 03:18:06 436.750
BEESAT 3 30 Jan 03:06:27 03:09:04 16° 312° (NW) 03:11:34 437.485
Gurwin Techsat 1B 30 Jan 03:09:39 03:14:51 55° 287° (WNW) 03:20:01 435.225
AUBIESAT-1 30 Jan 03:18:31 03:21:57 25° 258° (WSW) 03:25:08 437.475
AO-7 30 Jan 03:21:52 03:29:00 32° 96° (E) 03:36:17 29.400- 29.500
CUSAT 1 30 Jan 03:27:33 03:35:14 51° 92° (E) 03:43:21 437.405
RS-15 30 Jan 03:48:03 03:58:08 46° 110° (ESE) 04:08:23 29.354- 29.394
ITAMSAT 1 30 Jan 03:48:43 03:52:02 17° 294° (WNW) 03:55:08 435.822/435.867
ISS 30 Jan 04:08:04 04:11:17 48° 38° (NE) 04:14:29 145.825
PCSat 30 Jan 04:16:11 04:21:34 66° 298° (WNW) 04:26:59 145.827
HORYU 2 30 Jan 04:22:37 04:26:19 26° 290° (WNW) 04:29:54 437.375
MOZHAYETS 4 30 Jan 04:22:43 04:27:19 72° 260° (W) 04:31:54
JAS-2 30 Jan 04:24:52 04:30:29 49° 100° (E) 04:36:51 435.910
CUBESAT XI-V 30 Jan 04:43:42 04:45:29 12° 67° (ENE) 04:47:31 437.345
DANDE 30 Jan 04:45:50 04:53:51 59° 283° (WNW) 05:02:23 436.750
STRAND 1 30 Jan 05:10:52 05:14:28 20° 67° (ENE) 05:18:14 437.568
CUSAT 1 30 Jan 05:11:09 05:18:33 35° 289° (WNW) 05:26:00 437.405
AO-7 30 Jan 05:14:06 05:22:05 51° 293° (WNW) 05:29:56 29.400- 29.500
ISS 30 Jan 05:45:47 05:47:29 13° 232° (SW) 05:49:05 145.825
PRISM 30 Jan 05:56:30 06:00:33 61° 258° (WSW) 06:04:38 437.425
Cubesat XI-IV 30 Jan 05:57:37 06:02:44 44° 99° (E) 06:07:53 437.490
RS-15 30 Jan 06:00:06 06:10:32 47° 311° (NW) 06:20:58 29.354- 29.394
JAS-2 30 Jan 06:10:57 06:15:26 23° 291° (WNW) 06:20:06 435.910
YUBILEINY 30 Jan 06:12:19 06:20:46 51° 77° (ENE) 06:29:17 435.215
CUTE-I 30 Jan 06:17:09 06:22:31 69° 101° (ESE) 06:27:53 437.470
CUBESAT XI-V 30 Jan 06:17:59 06:22:30 58° 261° (W) 06:27:04 437.345
DANDE 30 Jan 06:36:48 06:39:23 11° 303° (WNW) 06:41:14 436.750
STRAND 1 30 Jan 06:48:36 06:53:25 41° 261° (W) 06:58:14 437.568
VERMONT LUNAR 30 Jan 06:48:54 06:51:32 20° 146° (SE) 06:54:12 437.305
Cubesat XI-IV 30 Jan 07:38:33 07:42:34 21° 293° (WNW) 07:46:25 437.490
CUTE 1.7 + AOD 2 30 Jan 07:48:13 07:49:22 11° 90° (E) 07:50:47 437.475
GOMX 1 30 Jan 07:51:15 07:54:29 17° 89° (E) 07:57:52 467.674
PHONESAT 2.4 30 Jan 07:53:18 07:56:36 36° 150° (SSE) 07:59:58 2401.200-2431.200
HO-68 30 Jan 07:57:53 08:03:37 27° 94° (E) 08:09:34 435.675
DOVE 4 30 Jan 07:59:14 08:01:26 13° 88° (E) 08:03:52 437.250
CUTE-I 30 Jan 07:59:15 08:02:05 14° 296° (WNW) 08:04:38 437.470
BRITE-PL 30 Jan 08:00:07 08:05:04 32° 94° (E) 08:09:51 437.365/2234.400
YUBILEINY 30 Jan 08:09:48 08:17:17 31° 274° (W) 08:24:31 435.215
SEEDS 30 Jan 08:15:39 08:18:47 21° 94° (E) 08:22:00 437.485
RS-15 30 Jan 08:20:42 08:26:53 16° 341° (NNW) 08:32:46 29.354- 29.394
VERMONT LUNAR 30 Jan 08:25:55 08:29:24 79° 339° (NNW) 08:32:54 437.305
TIGRISAT 30 Jan 08:37:38 08:38:29 11° 65° (ENE) 08:39:37 435.000
COMPASS 1 30 Jan 08:40:06 08:43:53 33° 97° (E) 08:47:40 437.405
CUBEBUG 2 30 Jan 08:44:39 08:44:52 10° 88° (E) 08:45:24 437.445
DELFI C3 30 Jan 08:55:30 08:57:52 16° 92° (E) 09:00:24 145.870
CANX-2 30 Jan 08:57:27 09:01:42 88° 283° (WNW) 09:05:54 2200.000
AAUSAT CUBESAT 2 30 Jan 09:05:18 09:09:25 61° 101° (E) 09:13:31 437.432
POLYITAN 1 30 Jan 09:12:49 09:15:03 14° 68° (ENE) 09:17:29 437.675
CINEMA 3 30 Jan 09:13:19 09:17:54 44° 98° (E) 09:22:15 145.822/145.860
UWE-3 30 Jan 09:19:27 09:22:57 23° 94° (E) 09:26:26 435.000/436.395/437.385
CUTE 1.7 + AOD 2 30 Jan 09:21:35 09:25:40 48° 286° (WNW) 09:29:43 437.475
Oscar 11 30 Jan 09:26:52 09:31:03 49° 99° (E) 09:35:14 145.826/435.025
UNISAT 6 30 Jan 09:27:17 09:31:38 38° 73° (ENE) 09:36:01 437.425
GOMX 1 30 Jan 09:27:48 09:33:02 51° 287° (WNW) 09:37:58 467.674
POPSAT HIP 1 30 Jan 09:31:03 09:34:21 23° 70° (ENE) 09:37:46 437.405
PHONESAT 2.4 30 Jan 09:31:34 09:35:06 56° 344° (NNW) 09:38:41 2401.200-2431.200
DUCHIFAT 1 30 Jan 09:32:58 09:36:19 23° 70° (ENE) 09:39:46 145.980
DOVE 4 30 Jan 09:34:40 09:39:46 59° 285° (WNW) 09:44:33 437.250
BRITE-PL 30 Jan 09:38:34 09:43:30 31° 290° (WNW) 09:48:07 437.365/2234.400
50 SAT 30 Jan 09:41:51 09:43:02 11° 90° (E) 09:44:29 437.505
HO-68 30 Jan 09:44:46 09:51:40 51° 291° (WNW) 09:58:30 435.675
VELOX 1 30 Jan 09:47:40 09:50:27 17° 92° (E) 09:53:24 145.980
BEESAT 3 30 Jan 09:50:10 09:52:17 14° 46° (NE) 09:54:33 437.485
SEEDS 30 Jan 09:51:05 09:54:38 26° 288° (WNW) 09:58:04 437.485
SO-50 30 Jan 10:00:10 10:04:42 79° 301° (WNW) 10:09:24 436.795
UKube-1 30 Jan 10:02:46 10:07:08 70° 102° (ESE) 10:11:28 .
ANTELSAT 30 Jan 10:02:56 10:07:41 85° 260° (W) 10:12:25 437.575/2403.000
VERMONT LUNAR 30 Jan 10:04:31 10:07:46 36° 356° (N) 10:11:03 437.305
NANOSAT C BR1 30 Jan 10:06:53 10:11:04 60° 75° (ENE) 10:15:19 145.865
TIGRISAT 30 Jan 10:10:00 10:14:43 73° 259° (W) 10:19:26 435.000
HUMSAT D 30 Jan 10:13:55 10:17:56 42° 98° (E) 10:21:53 437.325/437.525
COMPASS 1 30 Jan 10:16:40 10:19:23 17° 291° (WNW) 10:21:57 437.405
CUBEBUG 2 30 Jan 10:17:38 10:22:08 60° 285° (WNW) 10:26:25 437.445
ZACube-1 30 Jan 10:19:59 10:24:24 82° 285° (WNW) 10:28:42 437.345
QB50P2 30 Jan 10:21:48 10:26:05 87° 260° (W) 10:30:25 145.880/145.840
GONETS M04 30 Jan 10:23:56 10:24:43 10° 58° (ENE) 10:26:21
DX 1 30 Jan 10:25:02 10:29:23 61° 286° (WNW) 10:33:43 434.975-435.025
DELFI C3 30 Jan 10:29:36 10:33:15 32° 287° (WNW) 10:36:50 145.870
QB50P1 30 Jan 10:30:45 10:35:00 69° 259° (WSW) 10:39:18 145.935-145.965
FUNcube-1 30 Jan 10:31:36 10:35:58 60° 284° (WNW) 10:40:09 145.935
BUGSAT 1 30 Jan 10:36:21 10:40:26 78° 257° (WSW) 10:44:36 437.445
RS-15 30 Jan 10:40:01 10:45:52 15° 18° (NNE) 10:52:12 29.354- 29.394
POLYITAN 1 30 Jan 10:46:34 10:50:40 43° 261° (W) 10:54:48 437.675
CINEMA 3 30 Jan 10:51:38 10:54:44 17° 293° (WNW) 10:57:33 145.822/145.860
AISAT 30 Jan 10:55:09 10:59:42 78° 283° (WNW) 11:04:11 437.250
UWE-3 30 Jan 10:55:43 10:59:29 26° 289° (WNW) 11:03:06 435.000/436.395/437.385
ESTCUBE 1 30 Jan 11:01:52 11:06:17 50° 100° (E) 11:10:42 437.505/2401.250
AIST 1 30 Jan 11:04:04 11:08:18 77° 96° (E) 11:12:34
Oscar 11 30 Jan 11:04:54 11:06:52 13° 293° (WNW) 11:08:36 145.826/435.025
UNISAT 6 30 Jan 11:05:15 11:08:35 18° 267° (W) 11:11:46 437.425
POPSAT HIP 1 30 Jan 11:06:33 11:10:10 26° 265° (W) 11:13:45 437.405
DUCHIFAT 1 30 Jan 11:08:33 11:12:06 25° 265° (W) 11:15:36 145.980
SPROUT 30 Jan 11:10:06 11:11:43 12° 90° (E) 11:13:35 437.525
PHONESAT 2.4 30 Jan 11:10:39 11:14:03 37° 2° (N) 11:17:28 2401.200-2431.200
BEESAT 2 30 Jan 11:13:48 11:17:59 90° 286° (WNW) 11:22:06 435.950
50 SAT 30 Jan 11:14:38 11:18:29 43° 286° (WNW) 11:22:16 437.505
AIST 2 30 Jan 11:16:05 11:20:04 37° 55° (NE) 11:24:00 435.215
VELOX 1 30 Jan 11:23:03 11:27:14 38° 288° (WNW) 11:31:23 145.980
BEESAT 3 30 Jan 11:26:46 11:30:50 54° 244° (WSW) 11:34:47 437.485
CUBEBUG 1 30 Jan 11:27:22 11:31:51 87° 283° (WNW) 11:36:18 437.445
Oscar 19 30 Jan 11:27:53 11:30:09 13° 65° (ENE) 11:32:41 437.125/150
TISAT 1 30 Jan 11:41:18 11:44:58 28° 96° (E) 11:48:41 437.305
VERMONT LUNAR 30 Jan 11:42:52 11:46:16 48° 13° (NNE) 11:49:41 437.305
SO-50 30 Jan 11:45:29 11:46:10 10° 320° (NW) 11:46:37 436.795
HUMSAT D 30 Jan 11:51:09 11:53:24 14° 292° (WNW) 11:55:27 437.325/437.525
GONETS M04 30 Jan 12:15:01 12:23:40 68° 81° (E) 12:32:19
ESTCUBE 1 30 Jan 12:40:24 12:42:47 14° 293° (WNW) 12:44:58 437.505/2401.250
SWISSCUBE 30 Jan 12:40:56 12:44:25 21° 93° (E) 12:48:03 437.505
SPROUT 30 Jan 12:43:58 12:48:10 48° 286° (WNW) 12:52:20 437.525
PHONESAT 2.4 30 Jan 12:49:18 12:52:56 69° 18° (NNE) 12:56:34 2401.200-2431.200
Gurwin Techsat 1B 30 Jan 12:49:43 12:53:22 20° 67° (ENE) 12:57:13 435.225
RS-15 30 Jan 12:51:47 13:02:27 45° 48° (NE) 13:13:42 29.354- 29.394
AIST 2 30 Jan 12:55:34 12:58:25 17° 250° (WSW) 13:01:06 435.215
BEESAT 30 Jan 12:56:04 13:00:06 27° 96° (E) 13:04:11 436.000
ITUPSAT 1 30 Jan 13:00:40 13:04:51 30° 96° (E) 13:09:05 437.325
Oscar 19 30 Jan 13:03:49 13:09:00 69° 259° (W) 13:14:11 437.125/150
PCSat 30 Jan 13:07:02 13:12:21 52° 59° (ENE) 13:17:37 145.827
TISAT 1 30 Jan 13:17:22 13:20:40 21° 290° (WNW) 13:23:51 437.305
VERMONT LUNAR 30 Jan 13:21:01 13:24:24 44° 208° (SSW) 13:27:45 437.305
ITAMSAT 1 30 Jan 13:22:53 13:27:57 62° 74° (ENE) 13:33:06 435.822/435.867
HORYU 2 30 Jan 13:42:35 13:45:27 17° 68° (ENE) 13:48:28 437.375
DANDE 30 Jan 13:54:27 13:57:14 14° 58° (ENE) 14:00:00 436.750
GONETS M04 30 Jan 14:13:29 14:19:50 22° 276° (W) 14:25:47
CUSAT 1 30 Jan 14:15:11 14:19:42 23° 66° (ENE) 14:23:24 437.405
AO-7 30 Jan 14:17:46 14:25:01 36° 63° (ENE) 14:32:26 29.400- 29.500
SWISSCUBE 30 Jan 14:18:03 14:22:25 35° 289° (WNW) 14:26:43 437.505
STARS 30 Jan 14:22:46 14:26:36 28° 96° (E) 14:30:26 437.465
Gurwin Techsat 1B 30 Jan 14:27:58 14:33:03 46° 261° (W) 14:38:09 435.225
PHONESAT 2.4 30 Jan 14:28:13 14:31:20 26° 213° (SSW) 14:34:26 2401.200-2431.200
KKS-1 30 Jan 14:31:46 14:36:13 57° 101° (E) 14:40:36 437.445
BEESAT 30 Jan 14:33:53 14:37:53 26° 290° (WNW) 14:41:48 436.000
JAS-2 30 Jan 14:38:34 14:40:26 12° 65° (ENE) 14:42:34 435.910
ITUPSAT 1 30 Jan 14:38:45 14:42:38 24° 291° (WNW) 14:46:26 437.325
PCSat 30 Jan 14:51:43 14:55:24 18° 254° (WSW) 14:58:50 145.827
AUBIESAT-1 30 Jan 15:02:38 15:05:11 21° 101° (E) 15:07:55 437.475
RS-15 30 Jan 15:04:09 15:15:11 53° 248° (WSW) 15:26:30 29.354- 29.394
ITAMSAT 1 30 Jan 15:05:27 15:07:59 13° 270° (W) 15:10:12 435.822/435.867
O/OREOS (USA 219) 30 Jan 15:16:36 15:20:42 38° 105° (ESE) 15:24:55 437.305
HORYU 2 30 Jan 15:17:38 15:21:52 39° 262° (W) 15:26:04 437.375
DANDE 30 Jan 15:35:45 15:41:57 65° 266° (W) 15:46:27 436.750
JUGNU 30 Jan 15:45:55 15:46:58 11° 166° (SSE) 15:48:08 437.505
CUSAT 1 30 Jan 15:57:59 16:02:50 29° 273° (W) 16:06:34 437.405
STARS 30 Jan 15:59:27 16:02:58 22° 290° (WNW) 16:06:20 437.465
M-CUBED/EXP-1 PRIME 30 Jan 16:04:59 16:08:09 39° 290° (WNW) 16:11:25 437.505
AO-7 30 Jan 16:09:35 16:17:37 48° 260° (W) 16:25:37 29.400- 29.500
KKS-1 30 Jan 16:10:35 16:12:25 12° 294° (WNW) 16:14:01 437.445
JAS-2 30 Jan 16:19:36 16:25:10 70° 258° (WSW) 16:30:23 435.910
MOZHAYETS 4 30 Jan 16:21:11 16:25:17 33° 97° (E) 16:29:26
AUBIESAT-1 30 Jan 16:37:46 16:40:04 17° 293° (WNW) 16:42:21 437.475
O/OREOS (USA 219) 30 Jan 16:57:12 17:00:20 18° 302° (WNW) 17:03:21 437.305
Cubesat XI-IV 30 Jan 17:16:47 17:21:56 55° 73° (ENE) 17:27:10 437.490
JUGNU 30 Jan 17:31:43 17:35:14 16° 176° (S) 17:38:48 437.505
CUTE-I 30 Jan 17:36:09 17:41:28 84° 76° (ENE) 17:46:50 437.470
PRISM 30 Jan 17:42:50 17:46:05 22° 95° (E) 17:49:25 437.425
MOZHAYETS 4 30 Jan 17:58:56 18:02:20 20° 291° (WNW) 18:05:37
SRMSAT 30 Jan 18:15:19 18:18:25 14° 171° (S) 18:21:34 437.500
CUBESAT XI-V 30 Jan 18:17:41 18:22:09 43° 98° (E) 18:26:40 437.345
HO-68 30 Jan 18:25:52 18:29:31 15° 59° (ENE) 18:33:33 435.675
SO-50 30 Jan 18:34:28 18:39:09 43° 55° (NE) 18:43:50 436.795
GOMX 1 30 Jan 18:57:06 18:59:36 14° 65° (ENE) 19:02:27 467.674
Cubesat XI-IV 30 Jan 18:59:13 19:02:28 16° 269° (W) 19:05:28 437.490
STRAND 1 30 Jan 19:01:41 19:06:52 84° 102° (ESE) 19:12:02 437.568
DOVE 4 30 Jan 19:03:09 19:04:25 11° 64° (ENE) 19:06:02 437.250
SEEDS 30 Jan 19:07:15 19:08:28 11° 67° (ENE) 19:09:57 437.485
BRITE-PL 30 Jan 19:08:01 19:12:07 26° 68° (ENE) 19:16:35 437.365/2234.400
YUBILEINY 30 Jan 19:09:10 19:17:40 64° 93° (E) 19:26:16 435.215
PRISM 30 Jan 19:18:09 19:21:35 25° 289° (WNW) 19:24:56 437.425
JUGNU 30 Jan 19:20:05 19:23:32 16° 186° (S) 19:26:57 437.505
COMPASS 1 30 Jan 19:29:52 19:32:35 17° 70° (ENE) 19:35:27 437.405
CANX-2 30 Jan 19:47:35 19:51:40 44° 74° (ENE) 19:55:46 2200.000
AAUSAT CUBESAT 2 30 Jan 19:53:57 19:57:32 28° 72° (ENE) 20:01:11 437.432
CUBESAT XI-V 30 Jan 19:56:15 19:59:19 17° 292° (WNW) 20:02:12 437.345
SRMSAT 30 Jan 20:03:07 20:06:52 17° 181° (S) 20:10:37 437.500
HO-68 30 Jan 20:09:15 20:16:25 89° 64° (ENE) 20:23:37 435.675
CUTE 1.7 + AOD 2 30 Jan 20:11:15 20:15:33 80° 79° (ENE) 20:19:51 437.475
CINEMA 3 30 Jan 20:11:55 20:16:13 31° 71° (ENE) 20:20:40 145.822/145.860
UWE-3 30 Jan 20:14:39 20:17:20 16° 68° (ENE) 20:20:14 435.000/436.395/437.385
SO-50 30 Jan 20:15:48 20:19:27 20° 249° (WSW) 20:22:56 436.795
Oscar 11 30 Jan 20:19:12 20:22:51 27° 71° (ENE) 20:26:34 145.826/435.025
GOMX 1 30 Jan 20:32:07 20:37:07 67° 260° (W) 20:42:29 467.674
DOVE 4 30 Jan 20:36:28 20:41:29 83° 258° (WSW) 20:46:47 437.250
SEEDS 30 Jan 20:39:43 20:43:54 54° 260° (W) 20:48:05 437.485
STRAND 1 30 Jan 20:44:14 20:45:28 11° 297° (WNW) 20:46:22 437.568
VELOX 1 30 Jan 20:44:43 20:45:51 11° 66° (ENE) 20:47:16 145.980
ISS 30 Jan 20:45:38 20:48:53 78° 137° (SE) 20:52:10 145.825
BRITE-PL 30 Jan 20:45:54 20:50:28 34° 265° (W) 20:55:19 437.365/2234.400
UKube-1 30 Jan 20:55:05 20:59:06 40° 73° (ENE) 21:03:12 .
HUMSAT D 30 Jan 21:03:41 21:07:01 22° 71° (ENE) 21:10:27 437.325/437.525
COMPASS 1 30 Jan 21:04:15 21:08:06 33° 263° (W) 21:11:55 437.405
YUBILEINY 30 Jan 21:08:21 21:15:15 24° 292° (WNW) 21:21:50 435.215
CUBEBUG 2 30 Jan 21:12:17 21:17:01 80° 78° (ENE) 21:21:51 437.445
ZACube-1 30 Jan 21:12:41 21:17:10 55° 75° (ENE) 21:21:43 437.345
DELFI C3 30 Jan 21:14:23 21:18:28 80° 258° (WSW) 21:22:33 145.870
AIST 1 30 Jan 21:15:45 21:18:04 14° 72° (ENE) 21:20:36
DX 1 30 Jan 21:17:35 21:21:55 79° 76° (ENE) 21:26:18 434.975-435.025
FUNcube-1 30 Jan 21:23:58 21:28:32 73° 76° (ENE) 21:33:10 145.935
CANX-2 30 Jan 21:25:48 21:27:54 13° 269° (W) 21:29:45 2200.000
AAUSAT CUBESAT 2 30 Jan 21:30:07 21:33:15 19° 267° (W) 21:36:16 437.432
UWE-3 30 Jan 21:49:01 21:53:32 47° 262° (W) 21:58:05 435.000/436.395/437.385
CINEMA 3 30 Jan 21:49:19 21:53:25 25° 266° (W) 21:57:32 145.822/145.860
AISAT 30 Jan 21:50:14 21:54:38 65° 75° (ENE) 21:59:05 437.250
SRMSAT 30 Jan 21:52:43 21:55:20 13° 191° (S) 21:57:52 437.500
Oscar 11 30 Jan 21:55:37 21:59:03 22° 266° (W) 22:02:23 145.826/435.025
NANOSAT C BR1 30 Jan 21:57:08 21:58:50 12° 90° (E) 22:00:46 145.865
50 SAT 30 Jan 21:58:40 22:02:46 73° 77° (ENE) 22:06:55 437.505
ESTCUBE 1 30 Jan 21:59:05 22:03:03 33° 72° (ENE) 22:07:05 437.505/2401.250
ANTELSAT 30 Jan 21:59:06 22:02:39 24° 95° (E) 22:06:12 437.575/2403.000
HO-68 30 Jan 22:01:47 22:05:10 13° 272° (W) 22:07:59 435.675
TIGRISAT 30 Jan 22:05:38 22:09:24 28° 95° (E) 22:13:09 435.000
QB50P2 30 Jan 22:11:20 22:14:23 19° 93° (E) 22:17:32 145.880/145.840
VELOX 1 30 Jan 22:17:36 22:21:59 61° 259° (W) 22:26:24 145.980
QB50P1 30 Jan 22:19:43 22:23:10 24° 95° (E) 22:26:41 145.935-145.965
CUBEBUG 1 30 Jan 22:20:46 22:24:59 53° 75° (ENE) 22:29:16 437.445
BUGSAT 1 30 Jan 22:22:36 22:25:40 19° 94° (E) 22:28:51 437.445
ISS 30 Jan 22:23:53 22:25:45 14° 334° (NNW) 22:27:33 145.825
TISAT 1 30 Jan 22:32:13 22:34:38 15° 68° (ENE) 22:37:15 437.305
UKube-1 30 Jan 22:32:58 22:35:31 15° 268° (W) 22:37:52 .
POLYITAN 1 30 Jan 22:35:18 22:39:18 37° 97° (E) 22:43:17 437.675
HUMSAT D 30 Jan 22:38:57 22:42:43 27° 265° (W) 22:46:24 437.325/437.525
AIST 1 30 Jan 22:51:55 22:56:00 39° 267° (W) 23:00:03
ZACube-1 30 Jan 22:51:57 22:53:58 12° 271° (W) 22:55:41 437.345
POPSAT HIP 1 30 Jan 22:54:10 22:58:26 63° 101° (E) 23:02:41 437.405
DUCHIFAT 1 30 Jan 22:55:45 23:00:02 65° 101° (E) 23:04:16 145.980
UNISAT 6 30 Jan 22:59:00 23:03:24 64° 285° (WNW) 23:07:40 437.425
GONETS M04 30 Jan 23:21:24 23:24:48 13° 80° (E) 23:28:56
NANOSAT C BR1 30 Jan 23:30:54 23:35:02 46° 286° (WNW) 23:39:07 145.865
SPROUT 30 Jan 23:34:56 23:39:15 87° 82° (E) 23:43:36 437.525
ANTELSAT 30 Jan 23:35:47 23:39:25 25° 290° (WNW) 23:42:54 437.575/2403.000
ESTCUBE 1 30 Jan 23:36:44 23:40:02 19° 267° (W) 23:43:12 437.505/2401.250
TIGRISAT 30 Jan 23:42:38 23:46:03 22° 290° (WNW) 23:49:18 435.000
SWISSCUBE 30 Jan 23:45:32 23:48:36 18° 68° (ENE) 23:51:51 437.505
QB50P2 30 Jan 23:46:35 23:50:22 30° 288° (WNW) 23:54:05 145.880/145.840
QB50P1 30 Jan 23:55:28 23:59:01 25° 289° (WNW) 00:02:27 145.935-145.965
BUGSAT 1 30 Jan 23:57:27 00:01:14 30° 288° (WNW) 00:04:56 437.445
BEESAT 31 Jan 00:00:16 00:03:58 23° 69° (ENE) 00:07:46 436.000
CUBEBUG 1 31 Jan 00:00:24 00:01:47 11° 270° (W) 00:02:53 437.445
ITUPSAT 1 31 Jan 00:05:08 00:09:01 26° 70° (ENE) 00:12:58 437.325
TISAT 1 31 Jan 00:06:13 00:10:11 39° 262° (W) 00:14:11 437.305
POLYITAN 1 31 Jan 00:12:11 00:14:59 16° 291° (WNW) 00:17:36 437.675
POPSAT HIP 1 31 Jan 00:33:13 00:33:52 10° 294° (WNW) 00:34:16 437.405
BEESAT 2 31 Jan 01:06:04 01:09:47 34° 114° (ESE) 01:13:36 435.950
GONETS M04 31 Jan 01:11:47 01:20:35 85° 95° (E) 01:29:21
AIST 2 31 Jan 01:12:57 01:15:31 16° 110° (ESE) 01:18:16 435.215
STARS 31 Jan 01:17:53 01:20:53 19° 69° (ENE) 01:24:03 437.465
BEESAT 3 31 Jan 01:17:56 01:21:55 56° 116° (ESE) 01:25:59 437.485
Oscar 19 31 Jan 01:18:29 01:23:30 54° 100° (E) 01:28:31 437.125/150
M-CUBED/EXP-1 PRIME 31 Jan 01:20:02 01:20:32 10° 65° (ENE) 01:21:16 437.505
SWISSCUBE 31 Jan 01:21:42 01:26:12 42° 261° (W) 01:30:42 437.505
KKS-1 31 Jan 01:27:18 01:31:23 36° 72° (ENE) 01:35:32 437.445
O/OREOS (USA 219) 31 Jan 01:29:08 01:33:34 46° 66° (ENE) 01:37:59 437.305
BEESAT 31 Jan 01:37:28 01:41:42 31° 264° (W) 01:45:54 436.000
ITAMSAT 1 31 Jan 01:39:11 01:43:36 28° 95° (E) 01:48:06 435.822/435.867
ITUPSAT 1 31 Jan 01:42:44 01:46:50 28° 264° (W) 01:50:53 437.325
